Latest Coastal Weather Observations for Browse Island

IDD60701

Issued at 2:05 am CST Friday 25 April 2014 (issued every 10 minutes, with the page automatically refreshed every 10 minutes)

About coastal observations | Map of coastal stations | Coastal observations for NT | Marine services | Other Formats
Station Details ID: 200784 Name: BROWSE ISLAND Lat: -14.11 Lon: 123.55 Height: 3.7 m
Data from the previous 72 hours. | See also: Recent months for locations in Northern Territory
Date/Time
CST
Temp

°C
Wind Pressure Rain
since 9am
mm
Weather Cloud Vis
km
Sea
Height
m
Swell
Dir
 
Speed
knots
Gust
knots
hPa Trend Height
m
Period
s
Dir
25/02:00am 29.0 W 7 8 1008.5 - - - - - - - - -
25/01:30am 29.0 W 8 9 1008.7 - - - - - - - - -
25/01:00am 29.1 W 9 11 1008.7 - - - - - - - - -
25/12:30am 29.1 W 9 10 1008.8 - - - - - - - - -
25/12:00am 29.2 WNW 8 9 1009.0 - - - - - - - - -
 
Date/Time
CST
Temp

°C
Wind Pressure Rain
since 9am
mm
Weather Cloud Vis
km
Sea
Height
m
Swell
Dir
 
Speed
knots
Gust
knots
hPa Trend Height
m
Period
s
Dir
24/11:30pm 29.1 WNW 7 8 1009.1 - - - - - - - - -
24/11:00pm 29.2 W 4 6 1009.6 - - - - - - - - -
24/10:30pm 29.3 WSW 4 5 1009.6 - - - - - - - - -
24/10:00pm 29.2 SSW 2 4 1009.6 - - - - - - - - -
24/09:30pm 29.3 S 4 4 1009.3 - - - - - - - - -
24/09:00pm 29.4 SSW 4 5 1008.9 - - - - - - - - -
24/08:30pm 29.4 SSW 4 5 1008.6 - - - - - - - - -
24/08:00pm 29.4 SSW 5 6 1008.4 - - - - - - - - -
24/07:30pm 29.6 SSW 5 7 1008.0 - - - - - - - - -
24/07:00pm 29.6 SW 5 7 1007.9 - - - - - - - - -
24/06:30pm 29.8 SSW 5 7 1007.6 - - - - - - - - -
24/06:00pm 29.8 SSW 6 8 1007.5 - - - - - - - - -
24/05:30pm 30.2 SSW 5 6 1007.3 - - - - - - - - -
24/05:00pm 30.1 SSW 4 5 1007.5 - - - - - - - - -
24/04:30pm 30.0 S 6 7 1007.2 - - - - - - - - -
24/04:00pm 30.1 S 6 7 1007.5 - - - - - - - - -
24/03:30pm 30.7 S 5 7 1007.5 - - - - - - - - -
24/03:00pm 30.7 S 5 7 1007.9 - - - - - - - - -
24/02:30pm 30.7 S 4 6 1008.0 - - - - - - - - -
24/02:00pm 30.6 S 5 6 1008.3 - - - - - - - - -
24/01:30pm 31.3 S 6 7 1008.4 - - - - - - - - -
24/01:00pm 30.1 S 7 8 1008.9 - - - - - - - - -
24/12:00pm 30.1 S 5 7 1009.8 - - - - - - - - -
24/11:30am 29.9 S 7 8 1010.0 - - - - - - - - -
24/11:00am 29.9 S 6 7 1010.1 - - - - - - - - -
24/10:30am 30.1 SSE 6 7 1010.1 - - - - - - - - -
24/10:00am 29.7 S 6 7 1010.1 - - - - - - - - -
24/09:30am 29.5 S 7 9 1009.8 - - - - - - - - -
24/09:00am 29.4 S 6 7 1009.7 - - - - - - - - -
24/08:30am 29.3 S 7 9 1009.5 - - - - - - - - -
24/08:00am 29.3 S 7 9 1009.4 - - - - - - - - -
24/07:30am 29.2 SSW 8 9 1009.0 - - - - - - - - -
24/07:00am 29.2 SSW 7 9 1008.8 - - - - - - - - -
24/06:30am 29.1 SW 8 9 1008.5 - - - - - - - - -
24/06:00am 29.1 SW 8 10 1008.4 - - - - - - - - -
24/05:30am 29.2 SW 9 10 1008.3 - - - - - - - - -
24/05:00am 29.1 SW 9 11 1008.3 - - - - - - - - -
24/04:30am 29.2 SW 9 10 1008.2 - - - - - - - - -
24/04:00am 29.2 WSW 8 10 1008.5 - - - - - - - - -
24/03:30am 29.2 WSW 8 9 1008.6 - - - - - - - - -
24/03:00am 29.3 WSW 7 9 1009.0 - - - - - - - - -
24/02:30am 29.4 WSW 8 9 1009.2 - - - - - - - - -
24/02:00am 29.4 WSW 8 9 1009.6 - - - - - - - - -
24/01:30am 29.3 W 7 9 1009.7 - - - - - - - - -
24/01:00am 29.4 WSW 7 9 1010.1 - - - - - - - - -
24/12:30am 29.5 WSW 8 9 1010.1 - - - - - - - - -
24/12:00am 29.4 WSW 8 9 1010.3 - - - - - - - - -
 
Date/Time
CST
Temp

°C
Wind Pressure Rain
since 9am
mm
Weather Cloud Vis
km
Sea
Height
m
Swell
Dir
 
Speed
knots
Gust
knots
hPa Trend Height
m
Period
s
Dir
23/11:30pm 29.6 WSW 8 9 1010.6 - - - - - - - - -
23/11:00pm 29.6 SW 7 8 1010.7 - - - - - - - - -
23/10:30pm 29.7 SW 8 9 1010.5 - - - - - - - - -
23/10:00pm 29.7 SW 8 9 1010.6 - - - - - - - - -
23/09:30pm 29.9 SW 10 11 1010.3 - - - - - - - - -
23/09:00pm 29.8 SSW 9 10 1010.2 - - - - - - - - -
23/08:30pm 29.8 SSW 9 10 1009.7 - - - - - - - - -
23/08:00pm 29.8 SSW 10 11 1009.4 - - - - - - - - -
23/07:30pm 29.9 SSW 11 11 1009.0 - - - - - - - - -
23/07:00pm 29.9 SSW 10 12 1008.8 - - - - - - - - -
23/06:30pm 30.1 SSW 10 11 1008.3 - - - - - - - - -
23/06:00pm 30.1 SSW 10 11 1008.0 - - - - - - - - -
23/05:30pm 30.0 SSW 9 11 1007.7 - - - - - - - - -
23/05:00pm 30.2 SSW 9 11 1007.6 - - - - - - - - -
23/04:30pm 30.1 SSW 9 11 1007.4 - - - - - - - - -
23/04:00pm 30.1 SSW 9 10 1007.6 - - - - - - - - -
23/03:30pm 30.2 SSW 8 10 1007.7 - - - - - - - - -
23/03:00pm 30.1 SW 7 9 1008.1 - - - - - - - - -
23/02:30pm 30.0 SW 7 8 1008.5 - - - - - - - - -
23/02:00pm 30.0 SW 7 8 1009.0 - - - - - - - - -
23/01:30pm 29.9 SW 8 9 1009.2 - - - - - - - - -
23/01:00pm 29.8 SSW 8 10 1009.6 - - - - - - - - -
23/12:30pm 29.7 SSW 8 9 1010.2 - - - - - - - - -
23/12:00pm 29.6 SSW 8 9 1010.7 - - - - - - - - -
23/11:30am 29.7 SSW 9 10 1010.9 - - - - - - - - -
23/11:00am 29.6 S 9 11 1011.4 - - - - - - - - -
23/10:30am 29.4 SSW 9 10 1011.3 - - - - - - - - -
23/10:00am 29.4 SSW 9 10 1011.3 - - - - - - - - -
23/09:30am 29.5 S 7 8 1011.3 - - - - - - - - -
23/09:00am 29.2 SSW 9 10 1011.3 - - - - - - - - -
23/08:30am 29.3 SSW 8 10 1011.1 - - - - - - - - -
23/08:00am 29.4 SSW 8 9 1010.6 - - - - - - - - -
23/07:30am 29.3 SW 7 8 1010.4 - - - - - - - - -
23/07:00am 29.2 SW 5 6 1010.1 - - - - - - - - -
23/06:30am 29.2 SW 4 4 1010.0 - - - - - - - - -
23/06:00am 29.1 W 3 4 1010.0 - - - - - - - - -
23/05:30am 29.3 WSW 5 6 1009.9 - - - - - - - - -
23/05:00am 29.3 SW 6 8 1009.9 - - - - - - - - -
23/04:30am 29.3 SW 5 6 1009.8 - - - - - - - - -
23/04:00am 29.3 SSW 6 7 1009.9 - - - - - - - - -
23/03:30am 29.3 SW 6 8 1010.2 - - - - - - - - -
23/03:00am 29.5 SW 6 8 1010.5 - - - - - - - - -
23/02:30am 29.5 SW 8 9 1010.5 - - - - - - - - -
23/02:00am 29.5 SW 9 11 1010.9 - - - - - - - - -
23/01:30am 29.5 SW 9 10 1011.1 - - - - - - - - -
23/01:00am 29.5 SW 9 10 1011.5 - - - - - - - - -
23/12:30am 29.6 SW 8 9 1011.5 - - - - - - - - -
23/12:00am 29.7 SSW 8 9 1011.7 - - - - - - - - -
 
Date/Time
CST
Temp

°C
Wind Pressure Rain
since 9am
mm
Weather Cloud Vis
km
Sea
Height
m
Swell
Dir
 
Speed
knots
Gust
knots
hPa Trend Height
m
Period
s
Dir
22/11:30pm 29.6 SW 7 8 1011.7 - - - - - - - - -
22/11:00pm 29.8 SSW 7 8 1011.7 - - - - - - - - -
22/10:30pm 29.8 SSW 8 10 1011.5 - - - - - - - - -
22/10:00pm 29.9 S 8 10 1011.5 - - - - - - - - -
22/09:30pm 30.0 S 9 10 1011.1 - - - - - - - - -
22/09:00pm 30.0 S 9 11 1010.9 - - - - - - - - -
22/08:30pm 30.1 S 10 11 1010.3 - - - - - - - - -
22/08:00pm 30.2 S 10 12 1010.2 - - - - - - - - -
22/07:30pm 30.2 S 10 12 1009.8 - - - - - - - - -
22/07:00pm 30.4 S 11 13 1009.6 - - - - - - - - -
22/06:30pm 30.4 S 9 11 1009.2 - - - - - - - - -
22/06:00pm 30.5 SSE 9 11 1009.2 - - - - - - - - -
22/05:30pm 30.6 SSE 9 12 1008.8 - - - - - - - - -
22/05:00pm 30.6 SSE 9 11 1008.6 - - - - - - - - -
22/04:30pm 30.0 S 10 13 1008.6 - - - - - - - - -
22/04:00pm 29.8 S 9 11 1008.6 - - - - - - - - -
22/03:30pm 30.8 S 9 11 1008.8 - - - - - - - - -
22/03:00pm 30.0 SSE 9 12 1009.2 - - - - - - - - -
22/02:30pm 30.6 SSE 9 11 1009.4 - - - - - - - - -
22/02:00pm 30.4 SSE 10 13 1010.0 - - - - - - - - -
22/01:30pm 30.3 SSE 11 14 1010.1 - - - - - - - - -
22/01:00pm 30.5 SSE 11 13 1010.6 - - - - - - - - -
22/12:30pm 30.3 SSE 10 12 1011.2 - - - - - - - - -
22/12:00pm 30.6 SSE 10 13 1011.8 - - - - - - - - -
22/11:30am 30.1 SE 9 12 1011.8 - - - - - - - - -
22/11:00am 30.3 SSE 8 11 1012.1 - - - - - - - - -
22/10:30am 30.1 SSE 8 10 1012.0 - - - - - - - - -
22/10:00am 29.7 SE 7 9 1012.1 - - - - - - - - -
22/09:30am 30.1 SE 6 7 1011.8 - - - - - - - - -
22/09:00am 29.8 SE 6 7 1011.8 - - - - - - - - -
22/08:30am 29.4 SE 5 6 1011.6 - - - - - - - - -
22/08:00am 29.1 ESE 6 7 1011.4 - - - - - - - - -
22/07:30am 29.1 ESE 6 7 1011.1 - - - - - - - - -
22/07:00am 28.9 ESE 7 8 1010.8 - - - - - - - - -
22/06:30am 29.0 E 8 9 1010.7 - - - - - - - - -
22/06:00am 29.0 ESE 7 9 1010.8 - - - - - - - - -
22/05:30am 28.9 ESE 8 10 1010.8 - - - - - - - - -
22/05:00am 29.0 ESE 7 8 1010.8 - - - - - - - - -
22/04:30am 29.3 ESE 7 8 1010.7 - - - - - - - - -
22/04:00am 29.1 ESE 7 9 1010.7 - - - - - - - - -

Other Formats:

Comma delimited format used in spreadsheet applications
http://www.bom.gov.au/fwo/IDD60701/IDD60701.94103.axf

JavaScript Object Notation format (JSON) in row-major order
http://www.bom.gov.au/fwo/IDD60701/IDD60701.94103.json